| time (UTC) | temp C | wind direction | speed KPH | gust KPH | rain 1hr cm | rain 24hr cm | rain mn cm | humidity % | barometer mb |
| 20260503200239 | 16 | 286 | 17.7 | 27.4 | 0.00 | 0.00 | 0.00 | 35 | 1050.9 |
| 20260503195737 | 17 | 277 | 12.9 | 20.9 | 0.00 | 0.00 | 0.00 | 33 | 1050.6 |
| 20260503195233 | 17 | 176 | 9.7 | 14.5 | 0.00 | 0.00 | 0.00 | 31 | 1050.8 |
| 20260503194731 | 16 | 332 | 6.4 | 16.1 | 0.00 | 0.00 | 0.00 | 35 | 1051.0 |
| 20260503194226 | 16 | 260 | 11.3 | 20.9 | 0.00 | 0.00 | 0.00 | 32 | 1050.8 |
| 20260503193723 | 16 | 228 | 12.9 | 20.9 | 0.00 | 0.00 | 0.00 | 29 | 1051.1 |
| 20260503193219 | 16 | 309 | 16.1 | 22.5 | 0.00 | 0.00 | 0.00 | 30 | 1051.2 |
| 20260503192715 | 16 | 296 | 8.0 | 20.9 | 0.00 | 0.00 | 0.00 | 30 | 1051.1 |
| 20260503192210 | 16 | 241 | 9.7 | 20.9 | 0.00 | 0.00 | 0.00 | 35 | 1051.3 |
| 20260503191707 | 16 | 324 | 4.8 | 14.5 | 0.00 | 0.00 | 0.00 | 30 | 1051.3 |
| 20260503191204 | 16 | 229 | 11.3 | 17.7 | 0.00 | 0.00 | 0.00 | 35 | 1051.4 |
| 20260503190701 | 16 | 236 | 4.8 | 11.3 | 0.00 | 0.00 | 0.00 | 39 | 1051.3 |
| 20260503190158 | 16 | 258 | 8.0 | 9.7 | 0.00 | 0.00 | 0.00 | 32 | 1051.7 |
| 20260503185655 | 16 | 274 | 9.7 | 17.7 | 0.00 | 0.00 | 0.00 | 31 | 1051.5 |
| 20260503185150 | 16 | 293 | 8.0 | 16.1 | 0.00 | 0.00 | 0.00 | 38 | 1051.8 |
| 20260503184645 | 16 | 272 | 11.3 | 22.5 | 0.00 | 0.00 | 0.00 | 34 | 1051.9 |
| 20260503184142 | 16 | 254 | 6.4 | 6.4 | 0.00 | 0.00 | 0.00 | 35 | 1051.7 |
| 20260503183638 | 15 | 286 | 8.0 | 16.1 | 0.00 | 0.00 | 0.00 | 38 | 1051.8 |
| 20260503183136 | 15 | 211 | 11.3 | 14.5 | 0.00 | 0.00 | 0.00 | 33 | 1052.0 |
| 20260503182634 | 15 | 243 | 14.5 | 17.7 | 0.00 | 0.00 | 0.00 | 34 | 1051.9 |
| 20260503182132 | 15 | 227 | 11.3 | 16.1 | 0.00 | 0.00 | 0.00 | 35 | 1051.8 |
| 20260503181629 | 16 | 204 | 9.7 | 24.1 | 0.00 | 0.00 | 0.00 | 32 | 1052.2 |
| 20260503181125 | 15 | 197 | 4.8 | 12.9 | 0.00 | 0.00 | 0.00 | 35 | 1052.0 |
| 20260503180622 | 15 | 217 | 4.8 | 9.7 | 0.00 | 0.00 | 0.00 | 34 | 1052.5 |
| 20260503180120 | 15 | 280 | 6.4 | 11.3 | 0.00 | 0.00 | 0.00 | 33 | 1052.5 |
| 20260503175617 | 15 | 218 | 19.3 | 25.7 | 0.00 | 0.00 | 0.00 | 36 | 1052.6 |
| 20260503175114 | 15 | 197 | 11.3 | 16.1 | 0.00 | 0.00 | 0.00 | 33 | 1052.4 |
| 20260503174611 | 15 | 203 | 8.0 | 12.9 | 0.00 | 0.00 | 0.00 | 38 | 1052.8 |
| 20260503174108 | 15 | 215 | 6.4 | 9.7 | 0.00 | 0.00 | 0.00 | 36 | 1052.6 |
| 20260503173602 | 15 | 201 | 8.0 | 11.3 | 0.00 | 0.00 | 0.00 | 32 | 1052.8 |
| 20260503173059 | 15 | 301 | 4.8 | 9.7 | 0.00 | 0.00 | 0.00 | 33 | 1052.8 |
| 20260503172556 | 14 | 109 | 4.8 | 9.7 | 0.00 | 0.00 | 0.00 | 31 | 1052.8 |
| 20260503172054 | 14 | 277 | 9.7 | 12.9 | 0.00 | 0.00 | 0.00 | 32 | 1053.0 |
| 20260503171550 | 15 | 253 | 8.0 | 16.1 | 0.00 | 0.00 | 0.00 | 31 | 1053.2 |
| 20260503171047 | 15 | 264 | 11.3 | 17.7 | 0.00 | 0.00 | 0.00 | 33 | 1053.2 |
| 20260503170543 | 14 | 170 | 3.2 | 12.9 | 0.00 | 0.00 | 0.00 | 30 | 1053.3 |
| 20260503150936 | 13 | 259 | 3.2 | 9.7 | 0.00 | 0.00 | 0.00 | 36 | 1054.1 |
| 20260503150433 | 13 | 221 | 6.4 | 9.7 | 0.00 | 0.00 | 0.00 | 37 | 1054.3 |
| 20260503131326 | 8 | 261 | 4.8 | 4.8 | 0.00 | 0.00 | 0.00 | 63 | 1054.5 |
| 20260503130823 | 7 | 252 | 1.6 | 11.3 | 0.00 | 0.00 | 0.00 | 69 | 1054.4 |
| 20260503130321 | 6 | 190 | 1.6 | 3.2 | 0.00 | 0.00 | 0.00 | 88 | 1054.2 |
| 20260503110714 | -2 | 154 | 0.0 | 0.0 | 0.00 | 0.00 | 0.00 | 97 | 1053.8 |
| 20260503110211 | -2 | 154 | 0.0 | 0.0 | 0.00 | 0.00 | 0.00 | 97 | 1053.9 |
| 20260503100138 | -2 | 154 | 0.0 | 0.0 | 0.00 | 0.00 | 0.00 | 97 | 1053.5 |
| 20260503081532 | -1 | 154 | 0.0 | 0.0 | 0.00 | 0.00 | 0.00 | 96 | 1052.8 |
| 20260503081030 | -1 | 154 | 0.0 | 0.0 | 0.00 | 0.00 | 0.00 | 96 | 1053.1 |
| 20260503080526 | -1 | 154 | 0.0 | 0.0 | 0.00 | 0.00 | 0.00 | 96 | 1053.0 |
| 20260503072500 | 0 | 154 | 1.6 | 1.6 | 0.00 | 0.00 | 0.00 | 96 | 1052.5 |
| 20260503071956 | 0 | 154 | 0.0 | 0.0 | 0.00 | 0.00 | 0.00 | 96 | 1052.6 |
| 20260503071454 | 0 | 154 | 0.0 | 0.0 | 0.00 | 0.00 | 0.00 | 96 | 1052.6 |
| 20260503070949 | 0 | 154 | 0.0 | 0.0 | 0.00 | 0.00 | 0.00 | 96 | 1052.5 |
| 20260503070447 | 0 | 154 | 0.0 | 0.0 | 0.00 | 0.00 | 0.00 | 96 | 1052.6 |
| 20260503054900 | 0 | 154 | 0.0 | 0.0 | 0.00 | 0.00 | 0.00 | 95 | 1052.7 |
| 20260503054356 | 0 | 154 | 0.0 | 0.0 | 0.00 | 0.00 | 0.00 | 95 | 1052.7 |
| 20260503053854 | 0 | 154 | 0.0 | 0.0 | 0.00 | 0.00 | 0.00 | 95 | 1052.8 |
| 20260503053352 | 0 | 154 | 0.0 | 0.0 | 0.00 | 0.00 | 0.00 | 95 | 1052.8 |
| 20260503052848 | 0 | 154 | 0.0 | 0.0 | 0.00 | 0.00 | 0.00 | 95 | 1052.8 |
| 20260503052345 | 1 | 154 | 0.0 | 0.0 | 0.00 | 0.00 | 0.00 | 95 | 1052.7 |
| 20260503051841 | 1 | 154 | 0.0 | 0.0 | 0.00 | 0.00 | 0.00 | 95 | 1052.7 |
| 20260503051338 | 1 | 155 | 0.0 | 0.0 | 0.00 | 0.00 | 0.00 | 95 | 1052.8 |
| 20260503050835 | 1 | 154 | 0.0 | 0.0 | 0.00 | 0.00 | 0.00 | 95 | 1052.8 |
| 20260503050331 | 1 | 155 | 0.0 | 0.0 | 0.00 | 0.00 | 0.00 | 95 | 1052.6 |
| 20260503045829 | 1 | 155 | 0.0 | 0.0 | 0.00 | 0.00 | 0.00 | 95 | 1052.8 |
| 20260503045326 | 2 | 155 | 0.0 | 0.0 | 0.00 | 0.00 | 0.00 | 95 | 1052.8 |
| 20260503044822 | 2 | 155 | 0.0 | 0.0 | 0.00 | 0.00 | 0.00 | 95 | 1052.7 |
| 20260503044319 | 2 | 155 | 0.0 | 0.0 | 0.00 | 0.00 | 0.00 | 94 | 1052.6 |
| 20260503043816 | 2 | 154 | 0.0 | 0.0 | 0.00 | 0.00 | 0.00 | 94 | 1052.7 |
| 20260503043313 | 2 | 155 | 0.0 | 0.0 | 0.00 | 0.00 | 0.00 | 94 | 1052.6 |
| 20260503042809 | 2 | 154 | 0.0 | 0.0 | 0.00 | 0.00 | 0.00 | 94 | 1052.8 |
| 20260503042306 | 2 | 154 | 0.0 | 0.0 | 0.00 | 0.00 | 0.00 | 94 | 1052.5 |
| 20260503041802 | 2 | 155 | 0.0 | 0.0 | 0.00 | 0.00 | 0.00 | 94 | 1052.6 |
| 20260503041300 | 2 | 155 | 0.0 | 0.0 | 0.00 | 0.00 | 0.00 | 93 | 1052.4 |
| 20260503040757 | 2 | 155 | 0.0 | 0.0 | 0.00 | 0.00 | 0.00 | 93 | 1052.4 |
| 20260503040255 | 2 | 154 | 0.0 | 0.0 | 0.00 | 0.00 | 0.00 | 93 | 1052.2 |
| 20260503035751 | 2 | 154 | 0.0 | 0.0 | 0.00 | 0.00 | 0.00 | 93 | 1052.4 |
| 20260503035249 | 3 | 155 | 0.0 | 0.0 | 0.00 | 0.00 | 0.00 | 93 | 1052.3 |
| 20260503034746 | 3 | 155 | 0.0 | 0.0 | 0.00 | 0.00 | 0.00 | 93 | 1052.3 |
| 20260503034243 | 3 | 155 | 0.0 | 0.0 | 0.00 | 0.00 | 0.00 | 92 | 1052.3 |
| 20260503033740 | 3 | 155 | 0.0 | 0.0 | 0.00 | 0.00 | 0.00 | 92 | 1052.3 |
| 20260503033238 | 3 | 155 | 0.0 | 0.0 | 0.00 | 0.00 | 0.00 | 92 | 1052.3 |
| 20260503032736 | 3 | 155 | 0.0 | 0.0 | 0.00 | 0.00 | 0.00 | 91 | 1052.1 |
| 20260503032234 | 4 | 155 | 0.0 | 0.0 | 0.00 | 0.00 | 0.00 | 91 | 1052.1 |
| 20260503031731 | 4 | 155 | 0.0 | 0.0 | 0.00 | 0.00 | 0.00 | 91 | 1052.1 |
| 20260503031229 | 4 | 155 | 0.0 | 0.0 | 0.00 | 0.00 | 0.00 | 91 | 1052.0 |
| 20260503030725 | 4 | 155 | 0.0 | 0.0 | 0.00 | 0.00 | 0.00 | 91 | 1052.1 |
| 20260503030221 | 4 | 155 | 0.0 | 0.0 | 0.00 | 0.00 | 0.00 | 90 | 1052.3 |
| 20260503025719 | 4 | 155 | 0.0 | 0.0 | 0.00 | 0.00 | 0.00 | 90 | 1052.2 |
| 20260503025216 | 4 | 155 | 0.0 | 0.0 | 0.00 | 0.00 | 0.00 | 90 | 1052.2 |
| 20260503024712 | 4 | 155 | 0.0 | 0.0 | 0.00 | 0.00 | 0.00 | 90 | 1052.1 |
| 20260503024210 | 4 | 155 | 0.0 | 0.0 | 0.00 | 0.00 | 0.00 | 89 | 1052.0 |
| 20260503023707 | 4 | 155 | 0.0 | 0.0 | 0.00 | 0.00 | 0.00 | 88 | 1051.8 |
| 20260503023203 | 4 | 155 | 0.0 | 0.0 | 0.00 | 0.00 | 0.00 | 87 | 1051.9 |
| 20260503022700 | 4 | 155 | 0.0 | 0.0 | 0.00 | 0.00 | 0.00 | 85 | 1051.7 |
| 20260503022159 | 5 | 155 | 0.0 | 0.0 | 0.00 | 0.00 | 0.00 | 84 | 1051.5 |
| 20260503021656 | 5 | 155 | 0.0 | 0.0 | 0.00 | 0.00 | 0.00 | 83 | 1051.7 |
| 20260503021153 | 5 | 155 | 1.6 | 1.6 | 0.00 | 0.00 | 0.00 | 81 | 1051.7 |
| 20260503020650 | 5 | 155 | 1.6 | 1.6 | 0.00 | 0.00 | 0.00 | 82 | 1051.4 |
| 20260503020148 | 5 | 155 | 0.0 | 1.6 | 0.00 | 0.00 | 0.00 | 80 | 1051.5 |
| 20260503015644 | 5 | 155 | 1.6 | 1.6 | 0.00 | 0.00 | 0.00 | 80 | 1051.4 |
| 20260503015141 | 6 | 155 | 0.0 | 1.6 | 0.00 | 0.00 | 0.00 | 79 | 1051.4 |
| 20260503014637 | 6 | 155 | 0.0 | 0.0 | 0.00 | 0.00 | 0.00 | 79 | 1051.3 |
| 20260503014135 | 6 | 155 | 0.0 | 0.0 | 0.00 | 0.00 | 0.00 | 77 | 1051.3 |
| 20260503013632 | 6 | 156 | 1.6 | 1.6 | 0.00 | 0.00 | 0.00 | 76 | 1051.4 |
| 20260503013130 | 7 | 155 | 1.6 | 1.6 | 0.00 | 0.00 | 0.00 | 75 | 1051.0 |
| 20260503012627 | 7 | 102 | 0.0 | 1.6 | 0.00 | 0.00 | 0.00 | 74 | 1051.0 |
| 20260503012124 | 7 | 101 | 1.6 | 1.6 | 0.00 | 0.00 | 0.00 | 75 | 1051.0 |
| 20260503011620 | 7 | 48 | 0.0 | 0.0 | 0.00 | 0.00 | 0.00 | 74 | 1050.9 |
| 20260503011118 | 8 | 48 | 0.0 | 0.0 | 0.00 | 0.00 | 0.00 | 72 | 1051.0 |
| 20260503010613 | 8 | 48 | 0.0 | 0.0 | 0.00 | 0.00 | 0.00 | 73 | 1050.8 |
| 20260503010111 | 9 | 48 | 0.0 | 0.0 | 0.00 | 0.00 | 0.00 | 72 | 1050.8 |
| 20260503005608 | 10 | 48 | 0.0 | 1.6 | 0.00 | 0.00 | 0.00 | 66 | 1050.9 |
| 20260503005105 | 10 | 48 | 1.6 | 1.6 | 0.00 | 0.00 | 0.00 | 57 | 1050.8 |
| 20260503004601 | 10 | 48 | 1.6 | 1.6 | 0.00 | 0.00 | 0.00 | 56 | 1050.7 |
| 20260503004100 | 10 | 48 | 1.6 | 1.6 | 0.00 | 0.00 | 0.00 | 53 | 1050.8 |
| 20260503003556 | 10 | 40 | 3.2 | 3.2 | 0.00 | 0.00 | 0.00 | 54 | 1050.6 |
| 20260503003053 | 10 | 51 | 1.6 | 1.6 | 0.00 | 0.00 | 0.00 | 53 | 1050.6 |
| 20260503002550 | 10 | 37 | 3.2 | 3.2 | 0.00 | 0.00 | 0.00 | 53 | 1050.7 |
| 20260503002047 | 10 | 38 | 0.0 | 1.6 | 0.00 | 0.00 | 0.00 | 54 | 1050.4 |
| 20260503001543 | 10 | 24 | 1.6 | 1.6 | 0.00 | 0.00 | 0.00 | 55 | 1050.2 |
| 20260503001041 | 11 | 46 | 1.6 | 3.2 | 0.00 | 0.00 | 0.00 | 52 | 1050.1 |
| 20260503000538 | 11 | 33 | 1.6 | 1.6 | 0.00 | 0.00 | 0.00 | 53 | 1050.2 |
| 20260503000035 | 11 | 43 | 1.6 | 3.2 | 0.00 | 0.00 | 0.00 | 50 | 1050.1 |
| 20260502235531 | 11 | 28 | 1.6 | 1.6 | 0.00 | 0.00 | 0.00 | 53 | 1050.0 |
| 20260502235030 | 11 | 38 | 3.2 | 4.8 | 0.00 | 0.00 | 0.00 | 50 | 1050.0 |
| 20260502234525 | 11 | 351 | 4.8 | 4.8 | 0.00 | 0.00 | 0.00 | 50 | 1050.2 |
| 20260502234023 | 11 | 48 | 4.8 | 6.4 | 0.00 | 0.00 | 0.00 | 49 | 1050.0 |
| 20260502233518 | 11 | 35 | 3.2 | 3.2 | 0.00 | 0.00 | 0.00 | 49 | 1050.1 |
| 20260502233015 | 12 | 42 | 3.2 | 4.8 | 0.00 | 0.00 | 0.00 | 47 | 1050.0 |
| 20260502232511 | 13 | 20 | 3.2 | 9.7 | 0.00 | 0.00 | 0.00 | 47 | 1050.1 |
| 20260502232009 | 13 | 336 | 3.2 | 6.4 | 0.00 | 0.00 | 0.00 | 50 | 1049.9 |
| 20260502231505 | 12 | 6 | 3.2 | 4.8 | 0.00 | 0.00 | 0.00 | 49 | 1050.0 |
| 20260502231003 | 12 | 49 | 8.0 | 11.3 | 0.00 | 0.00 | 0.00 | 48 | 1049.9 |
| 20260502230501 | 12 | 14 | 3.2 | 11.3 | 0.00 | 0.00 | 0.00 | 49 | 1050.2 |
| 20260502225959 | 12 | 6 | 4.8 | 9.7 | 0.00 | 0.00 | 0.00 | 47 | 1050.1 |
| 20260502225455 | 12 | 342 | 3.2 | 4.8 | 0.00 | 0.00 | 0.00 | 49 | 1050.1 |
| 20260502224952 | 13 | 312 | 4.8 | 9.7 | 0.00 | 0.00 | 0.00 | 46 | 1050.0 |
| 20260502224448 | 13 | 46 | 3.2 | 11.3 | 0.00 | 0.00 | 0.00 | 47 | 1050.1 |
| 20260502223945 | 13 | 19 | 3.2 | 4.8 | 0.00 | 0.00 | 0.00 | 53 | 1049.9 |
| 20260502223443 | 12 | 353 | 1.6 | 6.4 | 0.00 | 0.00 | 0.00 | 50 | 1050.0 |
| 20260502222941 | 12 | 309 | 4.8 | 4.8 | 0.00 | 0.00 | 0.00 | 51 | 1050.1 |
| 20260502222438 | 12 | 320 | 3.2 | 6.4 | 0.00 | 0.00 | 0.00 | 50 | 1050.3 |
| 20260502221934 | 12 | 298 | 3.2 | 4.8 | 0.00 | 0.00 | 0.00 | 53 | 1050.3 |
| 20260502221430 | 12 | 44 | 0.0 | 3.2 | 0.00 | 0.00 | 0.00 | 51 | 1050.1 |
| 20260502220927 | 12 | 349 | 1.6 | 9.7 | 0.00 | 0.00 | 0.00 | 50 | 1050.0 |
| 20260502220423 | 12 | 337 | 3.2 | 6.4 | 0.00 | 0.00 | 0.00 | 49 | 1050.1 |
| 20260502215920 | 12 | 325 | 3.2 | 4.8 | 0.00 | 0.00 | 0.00 | 54 | 1050.1 |
| 20260502215417 | 12 | 308 | 4.8 | 6.4 | 0.00 | 0.00 | 0.00 | 53 | 1050.0 |
| 20260502214914 | 12 | 37 | 3.2 | 6.4 | 0.00 | 0.00 | 0.00 | 51 | 1050.2 |
| 20260502214411 | 12 | 353 | 4.8 | 9.7 | 0.00 | 0.00 | 0.00 | 50 | 1050.0 |
| 20260502213908 | 12 | 319 | 9.7 | 11.3 | 0.00 | 0.00 | 0.00 | 51 | 1049.9 |
| 20260502213405 | 12 | 337 | 4.8 | 9.7 | 0.00 | 0.00 | 0.00 | 50 | 1049.9 |
| 20260502212904 | 12 | 328 | 4.8 | 6.4 | 0.00 | 0.00 | 0.00 | 54 | 1049.8 |
| 20260502212402 | 11 | 50 | 4.8 | 9.7 | 0.00 | 0.00 | 0.00 | 51 | 1049.9 |
| 20260502211859 | 11 | 335 | 4.8 | 4.8 | 0.00 | 0.00 | 0.00 | 51 | 1049.9 |
| 20260502211359 | 11 | 30 | 3.2 | 6.4 | 0.00 | 0.00 | 0.00 | 51 | 1050.1 |
| 20260502210857 | 12 | 358 | 1.6 | 9.7 | 0.00 | 0.00 | 0.00 | 53 | 1050.0 |
| 20260502210354 | 12 | 332 | 9.7 | 11.3 | 0.00 | 0.00 | 0.00 | 49 | 1049.9 |
| 20260502205852 | 12 | 43 | 4.8 | 12.9 | 0.00 | 0.00 | 0.00 | 48 | 1049.9 |
| 20260502205347 | 12 | 301 | 8.0 | 11.3 | 0.00 | 0.00 | 0.00 | 47 | 1050.0 |
| 20260502204845 | 12 | 5 | 8.0 | 11.3 | 0.00 | 0.00 | 0.00 | 47 | 1050.2 |
| 20260502204342 | 12 | 328 | 3.2 | 12.9 | 0.00 | 0.00 | 0.00 | 49 | 1050.0 |
| 20260502203839 | 12 | 33 | 6.4 | 9.7 | 0.00 | 0.00 | 0.00 | 47 | 1050.0 |
| 20260502203337 | 12 | 47 | 8.0 | 11.3 | 0.00 | 0.00 | 0.00 | 48 | 1050.0 |
| 20260502202832 | 13 | 46 | 3.2 | 9.7 | 0.00 | 0.00 | 0.00 | 47 | 1050.0 |
| 20260502202330 | 12 | 314 | 6.4 | 6.4 | 0.00 | 0.00 | 0.00 | 48 | 1050.3 |
| 20260502201827 | 12 | 11 | 1.6 | 9.7 | 0.00 | 0.00 | 0.00 | 49 | 1050.2 |
| 20260502201323 | 12 | 329 | 6.4 | 9.7 | 0.00 | 0.00 | 0.00 | 50 | 1050.4 |
| 20260502200820 | 12 | 352 | 3.2 | 9.7 | 0.00 | 0.00 | 0.00 | 48 | 1050.2 |